KLM209 EHAM-KJFK

Flight info

Callsign KLM209
Flight time N/A
Altitude 38000
Route BERGI L60 PENIL M144 BAGSO DCT ULTAG DCT DOGAL/M082F390 NATA ALLRY/N0473F400 N468A TUSKY DCT PLYMM PARCH4
Aircraft A332/H-SDE3GHIJ2J3J5M1RVWXY/LB2D1

Departure

Time 2026-05-01 13:44
Airport Amsterdam Airport Schiphol (EHAM)

Arrival

Time N/A
Airport John F. Kennedy International Airport (KJFK)
Time Latitude Longitude Altitude Speed Heading
2026-05-01 12:40 52.31288 4.76917 3 ft 0 kts 303°
2026-05-01 13:35 52.31267 4.76975 3 ft 4 kts 298°
2026-05-01 13:35 52.31254 4.77008 4 ft 4 kts 341°
2026-05-01 13:35 52.31260 4.77042 4 ft 3 kts 69°
2026-05-01 13:36 52.31277 4.77073 3 ft 4 kts 44°
2026-05-01 13:36 52.31291 4.77109 3 ft 3 kts 66°
2026-05-01 13:36 52.31296 4.77185 3 ft 4 kts 94°
2026-05-01 13:37 52.31293 4.77229 2 ft 4 kts 94°
2026-05-01 13:37 52.31292 4.77268 3 ft 2 kts 92°
2026-05-01 13:37 52.31292 4.77269 3 ft 1 kts 92°
2026-05-01 13:39 52.31292 4.77270 3 ft 0 kts 92°
2026-05-01 13:39 52.31291 4.77294 3 ft 5 kts 92°
2026-05-01 13:39 52.31288 4.77380 3 ft 11 kts 94°
2026-05-01 13:40 52.31283 4.77514 3 ft 12 kts 94°
2026-05-01 13:40 52.31292 4.77626 3 ft 9 kts 55°
2026-05-01 13:40 52.31348 4.77654 3 ft 9 kts
2026-05-01 13:40 52.31412 4.77651 3 ft 10 kts 353°
2026-05-01 13:41 52.31474 4.77609 3 ft 10 kts 325°
2026-05-01 13:41 52.31522 4.77552 3 ft 7 kts 336°
2026-05-01 13:41 52.31570 4.77565 3 ft 7 kts 35°
2026-05-01 13:41 52.31585 4.77632 3 ft 7 kts 83°
2026-05-01 13:42 52.31589 4.77708 3 ft 7 kts 86°
2026-05-01 13:42 52.31592 4.77786 3 ft 7 kts 86°
2026-05-01 13:42 52.31595 4.77862 3 ft 7 kts 86°
2026-05-01 13:42 52.31597 4.77931 4 ft 4 kts 86°
2026-05-01 13:43 52.31594 4.77954 4 ft 1 kts 121°
2026-05-01 13:43 52.31581 4.77960 5 ft 4 kts 164°
2026-05-01 13:43 52.31482 4.77958 5 ft 38 kts 182°
2026-05-01 13:43 52.31010 4.77912 -1 ft 96 kts 183°
2026-05-01 13:44 52.30174 4.77834 5 ft 143 kts 183°
2026-05-01 13:44 52.29211 4.77741 463 ft 145 kts 178°
2026-05-01 13:44 52.28194 4.77807 1049 ft 147 kts 165°
2026-05-01 13:44 52.27242 4.78359 1417 ft 160 kts 158°
2026-05-01 13:45 52.26137 4.79021 1627 ft 183 kts 162°
2026-05-01 13:45 52.24852 4.79604 1970 ft 201 kts 165°
2026-05-01 13:45 52.23463 4.80155 2432 ft 210 kts 165°
2026-05-01 13:45 52.22014 4.80716 2912 ft 217 kts 168°
2026-05-01 13:46 52.20491 4.80797 3376 ft 228 kts 192°
2026-05-01 13:46 52.19179 4.79382 3718 ft 252 kts 230°
2026-05-01 13:46 52.18588 4.76628 4291 ft 269 kts 266°
2026-05-01 13:46 52.18817 4.74580 4849 ft 276 kts 288°
2026-05-01 13:47 52.19945 4.72072 5649 ft 287 kts 320°
2026-05-01 13:47 52.21546 4.70650 6338 ft 292 kts 335°
2026-05-01 13:47 52.23408 4.69409 7134 ft 293 kts 336°
2026-05-01 13:47 52.25297 4.68177 7962 ft 296 kts 336°
2026-05-01 13:48 52.27223 4.66932 8698 ft 300 kts 336°
2026-05-01 13:48 52.29183 4.65667 9459 ft 305 kts 337°
2026-05-01 13:48 52.31192 4.64371 10212 ft 308 kts 337°
2026-05-01 13:48 52.33221 4.63060 10662 ft 322 kts 337°
2026-05-01 13:49 52.35373 4.61668 10956 ft 341 kts 337°
2026-05-01 13:49 52.37636 4.60201 11225 ft 359 kts 337°
2026-05-01 13:49 52.40019 4.58656 11493 ft 377 kts 338°
2026-05-01 13:49 52.42502 4.57046 11789 ft 391 kts 338°
2026-05-01 13:50 52.45015 4.55417 12261 ft 398 kts 338°
2026-05-01 13:50 52.47642 4.53710 12835 ft 403 kts 338°
2026-05-01 13:50 52.50265 4.52005 13398 ft 408 kts 338°
2026-05-01 13:50 52.52917 4.50279 13973 ft 412 kts 338°
2026-05-01 13:51 52.55594 4.48534 14479 ft 416 kts 338°
2026-05-01 13:51 52.58178 4.46848 14992 ft 419 kts 338°
2026-05-01 13:51 52.60892 4.45076 15536 ft 421 kts 338°
2026-05-01 13:51 52.63623 4.43290 16075 ft 424 kts 338°
2026-05-01 13:52 52.66370 4.41490 16620 ft 426 kts 338°
2026-05-01 13:52 52.69131 4.39650 17135 ft 429 kts 335°
2026-05-01 13:52 52.71788 4.37286 17669 ft 430 kts 324°
2026-05-01 13:52 52.74047 4.34074 18199 ft 429 kts 310°
2026-05-01 13:53 52.75794 4.30109 18669 ft 428 kts 296°
2026-05-01 13:53 52.78070 4.21124 19566 ft 428 kts 286°
2026-05-01 13:53 52.79003 4.16455 20010 ft 429 kts 285°
2026-05-01 13:54 52.79900 4.11729 20452 ft 431 kts 284°
2026-05-01 13:54 52.80793 4.06991 20883 ft 433 kts 285°
2026-05-01 13:54 52.81701 4.02235 21321 ft 435 kts 285°
2026-05-01 13:54 52.82628 3.97452 21735 ft 438 kts 285°
2026-05-01 13:55 52.83570 3.92653 22138 ft 440 kts 285°
2026-05-01 13:55 52.84523 3.87830 22538 ft 442 kts 285°
2026-05-01 13:55 52.85485 3.82980 22934 ft 445 kts 285°
2026-05-01 13:55 52.86449 3.78108 23327 ft 447 kts 285°
2026-05-01 13:56 52.87417 3.73208 23713 ft 449 kts 285°
2026-05-01 13:56 52.88388 3.68277 24049 ft 451 kts 285°
2026-05-01 13:56 52.89360 3.63324 24370 ft 453 kts 285°
2026-05-01 13:56 52.90333 3.58354 24698 ft 455 kts 285°
2026-05-01 13:57 52.91307 3.53361 25045 ft 456 kts 285°
2026-05-01 13:57 52.92282 3.48347 25331 ft 459 kts 284°
2026-05-01 13:57 52.93261 3.43301 25636 ft 461 kts 284°
2026-05-01 13:57 52.94241 3.38236 25954 ft 462 kts 284°
2026-05-01 13:58 52.95222 3.33151 26256 ft 464 kts 284°
2026-05-01 13:58 52.96205 3.28045 26575 ft 466 kts 284°
2026-05-01 13:58 52.97188 3.22920 26888 ft 466 kts 284°
2026-05-01 13:58 52.98170 3.17793 27214 ft 468 kts 284°
2026-05-01 13:59 52.99155 3.12636 27501 ft 469 kts 284°
2026-05-01 13:59 53.00141 3.07455 27789 ft 471 kts 284°
2026-05-01 13:59 53.01127 3.02259 28087 ft 473 kts 284°
2026-05-01 13:59 53.02114 2.97043 28332 ft 475 kts 284°
2026-05-01 14:00 53.03105 2.91794 28596 ft 477 kts 284°
2026-05-01 14:00 53.04097 2.86524 28879 ft 478 kts 284°
2026-05-01 14:00 53.05086 2.81257 29137 ft 480 kts 284°
2026-05-01 14:00 53.06082 2.75936 29407 ft 481 kts 284°
2026-05-01 14:01 53.07076 2.70610 29686 ft 482 kts 284°
2026-05-01 14:01 53.08067 2.65291 30072 ft 481 kts 284°
2026-05-01 14:01 53.09054 2.59979 30442 ft 480 kts 284°
2026-05-01 14:01 53.10034 2.54690 30775 ft 478 kts 283°
2026-05-01 14:02 53.10834 2.49345 31068 ft 475 kts 276°
2026-05-01 14:02 53.11386 2.43934 31336 ft 474 kts 275°
2026-05-01 14:02 53.11877 2.38516 31653 ft 472 kts 274°
2026-05-01 14:02 53.12331 2.33107 31965 ft 471 kts 274°
2026-05-01 14:03 53.12765 2.27708 32273 ft 470 kts 274°
2026-05-01 14:03 53.13190 2.22325 32569 ft 469 kts 274°
2026-05-01 14:03 53.13613 2.16943 32867 ft 468 kts 274°
2026-05-01 14:03 53.14037 2.11570 33157 ft 468 kts 274°
2026-05-01 14:04 53.14459 2.06209 33442 ft 467 kts 274°
2026-05-01 14:04 53.14882 2.00849 33715 ft 466 kts 274°
2026-05-01 14:04 53.15303 1.95489 33932 ft 467 kts 274°
2026-05-01 14:04 53.15582 1.91936 34091 ft 467 kts 274°
2026-05-01 14:05 53.16140 1.84769 34423 ft 466 kts 273°
2026-05-01 14:05 53.16556 1.79399 34651 ft 465 kts 273°
2026-05-01 14:05 53.16967 1.74068 34871 ft 465 kts 273°
2026-05-01 14:05 53.17375 1.68732 35087 ft 464 kts 273°
2026-05-01 14:06 53.17780 1.63395 35291 ft 464 kts 273°
2026-05-01 14:06 53.18183 1.58057 35486 ft 463 kts 273°
2026-05-01 14:06 53.18583 1.52726 35713 ft 463 kts 273°
2026-05-01 14:06 53.18980 1.47403 35880 ft 463 kts 273°
2026-05-01 14:07 53.19374 1.42076 36051 ft 463 kts 273°
2026-05-01 14:07 53.19768 1.36739 36247 ft 463 kts 273°
2026-05-01 14:07 53.20158 1.31407 36437 ft 463 kts 273°
2026-05-01 14:08 53.20930 1.20765 36794 ft 462 kts 273°
2026-05-01 14:08 53.21312 1.15443 36966 ft 462 kts 273°
2026-05-01 14:08 53.21692 1.10122 37145 ft 462 kts 273°
2026-05-01 14:08 53.22064 1.04873 37303 ft 461 kts 273°
2026-05-01 14:09 53.22443 0.99490 37519 ft 461 kts 273°
2026-05-01 14:09 53.22816 0.94172 37696 ft 460 kts 273°
2026-05-01 14:09 53.23184 0.88871 37868 ft 460 kts 273°
2026-05-01 14:09 53.23550 0.83574 38028 ft 460 kts 273°
2026-05-01 14:10 53.23913 0.78292 38139 ft 460 kts 273°
2026-05-01 14:10 53.24633 0.67685 38148 ft 458 kts 273°
2026-05-01 14:11 53.25342 0.57121 38152 ft 458 kts 272°
2026-05-01 14:11 53.26385 0.41290 38155 ft 457 kts 272°
2026-05-01 14:12 53.27068 0.30732 38146 ft 457 kts 272°
2026-05-01 14:12 53.27743 0.20163 38140 ft 457 kts 272°
2026-05-01 14:13 53.28297 0.11382 38143 ft 457 kts 272°
2026-05-01 14:13 53.29157 -0.00883 38146 ft 458 kts 275°
2026-05-01 14:14 53.30236 -0.11401 38132 ft 460 kts 277°
2026-05-01 14:14 53.31381 -0.21924 38132 ft 460 kts 277°
2026-05-01 14:15 53.32492 -0.32469 38132 ft 460 kts 276°
2026-05-01 14:15 53.33568 -0.43020 38130 ft 460 kts 276°
2026-05-01 14:16 53.34625 -0.53565 38129 ft 460 kts 276°
2026-05-01 14:16 53.35673 -0.64122 38128 ft 460 kts 276°
2026-05-01 14:17 53.36714 -0.74688 38126 ft 460 kts 276°
2026-05-01 14:17 53.37746 -0.85250 38124 ft 460 kts 276°
2026-05-01 14:18 53.38771 -0.95826 38124 ft 460 kts 276°
2026-05-01 14:18 53.39620 -1.04684 38130 ft 460 kts 276°
2026-05-01 14:19 53.40794 -1.17051 38119 ft 460 kts 276°
2026-05-01 14:19 53.41788 -1.27638 38122 ft 460 kts 276°
2026-05-01 14:20 53.43260 -1.43518 38121 ft 459 kts 275°
2026-05-01 14:21 53.44229 -1.54111 38124 ft 460 kts 275°
2026-05-01 14:21 53.45189 -1.64698 38128 ft 459 kts 275°
2026-05-01 14:22 53.46616 -1.80629 38131 ft 459 kts 275°
2026-05-01 14:22 53.47552 -1.91227 38116 ft 460 kts 275°
2026-05-01 14:23 53.48479 -2.01846 38125 ft 459 kts 275°
2026-05-01 14:23 53.49397 -2.12458 38136 ft 459 kts 275°
2026-05-01 14:24 53.50305 -2.23078 38138 ft 459 kts 275°
2026-05-01 14:24 53.51203 -2.33695 38135 ft 459 kts 275°
2026-05-01 14:25 53.52092 -2.44313 38142 ft 459 kts 275°
2026-05-01 14:25 53.52972 -2.54950 38146 ft 459 kts 275°
2026-05-01 14:26 53.54129 -2.69103 38141 ft 459 kts 274°
2026-05-01 14:27 53.54986 -2.79741 38154 ft 459 kts 274°
2026-05-01 14:27 53.55835 -2.90383 38156 ft 459 kts 274°
2026-05-01 14:28 53.57090 -3.06352 38161 ft 459 kts 274°
2026-05-01 14:28 53.57914 -3.17006 38159 ft 459 kts 274°
2026-05-01 14:29 53.58731 -3.27684 38155 ft 460 kts 274°
2026-05-01 14:30 53.60336 -3.49060 38152 ft 460 kts 273°
2026-05-01 14:31 53.61514 -3.65094 38164 ft 460 kts 272°
2026-05-01 14:31 53.62082 -3.75808 38145 ft 460 kts 270°
2026-05-01 14:32 53.62493 -3.86570 38153 ft 460 kts 269°
2026-05-01 14:32 53.62893 -3.97330 38141 ft 460 kts 269°
2026-05-01 14:33 53.63306 -4.08085 38144 ft 460 kts 269°
2026-05-01 14:33 53.63721 -4.18839 38151 ft 460 kts 269°
2026-05-01 14:34 53.64128 -4.29605 38138 ft 460 kts 269°
2026-05-01 14:34 53.64525 -4.40369 38146 ft 460 kts 269°
2026-05-01 14:35 53.64913 -4.51144 38138 ft 460 kts 269°
2026-05-01 14:35 53.65289 -4.61897 38140 ft 460 kts 269°
2026-05-01 14:36 53.65653 -4.72599 38142 ft 461 kts 268°
2026-05-01 14:36 53.66011 -4.83399 38130 ft 462 kts 268°
2026-05-01 14:37 53.66363 -4.94207 38136 ft 462 kts 268°
2026-05-01 14:37 53.66708 -5.05022 38128 ft 462 kts 268°
2026-05-01 14:38 53.67043 -5.15839 38128 ft 462 kts 268°
2026-05-01 14:38 53.67361 -5.26648 38112 ft 462 kts 268°
2026-05-01 14:39 53.67667 -5.37502 38113 ft 463 kts 268°
2026-05-01 14:39 53.67964 -5.48359 38108 ft 464 kts 267°
2026-05-01 14:40 53.68218 -5.59220 38112 ft 463 kts 267°
2026-05-01 14:40 53.68433 -5.70067 38108 ft 463 kts 266°
2026-05-01 14:41 53.68637 -5.80928 38120 ft 463 kts 266°
2026-05-01 14:41 53.68836 -5.91784 38101 ft 463 kts 266°
2026-05-01 14:42 53.69027 -6.02635 38099 ft 463 kts 266°
2026-05-01 14:42 53.69208 -6.13488 38095 ft 463 kts 266°
2026-05-01 14:43 53.69380 -6.24342 38104 ft 463 kts 266°
2026-05-01 14:43 53.69540 -6.35131 38091 ft 464 kts 266°
2026-05-01 14:44 53.69693 -6.46025 38089 ft 464 kts 266°
2026-05-01 14:44 53.69903 -6.62371 38084 ft 464 kts 266°
2026-05-01 14:45 53.70403 -6.78726 38107 ft 468 kts 271°
2026-05-01 14:46 53.71127 -6.89660 38082 ft 470 kts 272°
2026-05-01 14:46 53.72285 -7.06147 38082 ft 471 kts 272°
2026-05-01 14:47 53.73036 -7.17088 38077 ft 470 kts 272°
2026-05-01 14:48 53.74136 -7.33557 38093 ft 470 kts 272°
2026-05-01 14:48 53.75212 -7.50035 38077 ft 471 kts 272°
2026-05-01 14:49 53.76613 -7.72046 38065 ft 472 kts 271°
2026-05-01 14:50 53.77977 -7.94115 38070 ft 472 kts 271°
2026-05-01 14:51 53.78970 -8.10624 38067 ft 473 kts 271°
2026-05-01 14:52 53.79945 -8.27222 38061 ft 473 kts 271°
2026-05-01 14:53 53.80897 -8.43821 38069 ft 473 kts 271°
2026-05-01 14:53 53.81520 -8.54921 38071 ft 474 kts 271°
2026-05-01 14:54 53.82134 -8.66039 38074 ft 474 kts 271°
2026-05-01 14:54 53.82738 -8.77155 38076 ft 474 kts 271°
2026-05-01 14:55 53.83332 -8.88276 38074 ft 474 kts 271°
2026-05-01 14:55 53.83914 -8.99398 38073 ft 475 kts 271°
2026-05-01 14:56 53.84488 -9.10534 38068 ft 475 kts 271°
2026-05-01 14:56 53.85051 -9.21679 38067 ft 475 kts 271°
2026-05-01 14:57 53.85604 -9.32827 38065 ft 475 kts 271°
2026-05-01 14:57 53.86414 -9.49546 38073 ft 475 kts 271°
2026-05-01 14:58 53.86940 -9.60697 38066 ft 475 kts 271°
2026-05-01 14:58 53.87457 -9.71852 38067 ft 475 kts 271°
2026-05-01 14:59 53.87963 -9.83021 38067 ft 475 kts 271°
2026-05-01 14:59 53.88456 -9.94115 38072 ft 475 kts 271°
2026-05-01 15:00 53.89181 -10.10871 38072 ft 476 kts 271°
2026-05-01 15:01 53.89653 -10.22090 38071 ft 477 kts 271°
2026-05-01 15:01 53.90115 -10.33303 38069 ft 477 kts 271°
2026-05-01 15:02 53.90566 -10.44515 38067 ft 477 kts 271°
2026-05-01 15:02 53.91009 -10.55814 38077 ft 477 kts 271°
2026-05-01 15:03 53.91436 -10.66957 38064 ft 477 kts 271°
2026-05-01 15:03 53.91855 -10.78178 38062 ft 477 kts 271°
2026-05-01 15:04 53.92265 -10.89404 38063 ft 477 kts 271°
2026-05-01 15:04 53.92663 -11.00628 38062 ft 477 kts 271°
2026-05-01 15:05 53.93051 -11.11855 38061 ft 476 kts 271°
2026-05-01 15:05 53.93429 -11.23069 38057 ft 476 kts 271°
2026-05-01 15:06 53.93795 -11.34280 38057 ft 476 kts 271°
2026-05-01 15:06 53.94151 -11.45485 38048 ft 476 kts 271°
2026-05-01 15:07 53.94496 -11.56699 38052 ft 476 kts 271°
2026-05-01 15:07 53.94832 -11.67908 38048 ft 476 kts 271°
2026-05-01 15:08 53.95163 -11.79143 38051 ft 477 kts 271°
2026-05-01 15:08 53.95475 -11.90393 38043 ft 477 kts 271°
2026-05-01 15:09 53.95776 -12.01635 38044 ft 477 kts 270°
2026-05-01 15:09 53.96069 -12.12889 38035 ft 477 kts 270°
2026-05-01 15:10 53.96353 -12.24140 38039 ft 477 kts 271°
2026-05-01 15:10 53.96759 -12.41050 38035 ft 478 kts 271°
2026-05-01 15:11 53.97141 -12.57957 38035 ft 478 kts 270°
2026-05-01 15:12 53.97383 -12.69225 38034 ft 477 kts 270°
2026-05-01 15:12 53.97725 -12.86111 38035 ft 476 kts 271°
2026-05-01 15:14 53.98209 -13.12301 38040 ft 476 kts 270°
2026-05-01 15:14 53.98490 -13.29151 38048 ft 476 kts 271°
2026-05-01 15:15 53.98829 -13.51648 38056 ft 476 kts 270°
2026-05-01 15:16 53.99125 -13.74141 38075 ft 476 kts 270°
2026-05-01 15:18 53.99430 -14.02173 38090 ft 473 kts 271°
2026-05-01 15:19 53.99636 -14.24547 38102 ft 473 kts 271°
2026-05-01 15:19 53.99760 -14.41250 38107 ft 473 kts 271°
2026-05-01 15:20 53.99860 -14.58030 38115 ft 474 kts 271°
2026-05-01 15:21 53.99914 -14.69224 38121 ft 474 kts 271°
2026-05-01 15:21 53.99957 -14.80413 38124 ft 474 kts 271°
2026-05-01 15:22 54.00000 -14.97208 38126 ft 473 kts 272°
2026-05-01 15:22 54.00121 -15.08365 38134 ft 472 kts 274°
2026-05-01 15:23 54.00360 -15.19521 38137 ft 472 kts 274°
2026-05-01 15:23 54.00597 -15.30666 38141 ft 472 kts 274°
2026-05-01 15:24 54.00806 -15.41825 38142 ft 472 kts 274°
2026-05-01 15:24 54.00999 -15.52984 38144 ft 472 kts 274°
2026-05-01 15:25 54.01174 -15.64122 38151 ft 471 kts 274°
2026-05-01 15:25 54.01338 -15.75269 38151 ft 471 kts 274°
2026-05-01 15:26 54.01493 -15.86412 38157 ft 471 kts 274°
2026-05-01 15:26 54.01638 -15.97555 38157 ft 471 kts 273°
2026-05-01 15:27 54.01774 -16.08683 38162 ft 470 kts 274°
2026-05-01 15:28 54.01958 -16.25299 38293 ft 472 kts 273°
2026-05-01 15:28 54.02014 -16.30873 38427 ft 472 kts 273°
2026-05-01 15:28 54.02068 -16.36453 38588 ft 472 kts 273°
2026-05-01 15:29 54.02168 -16.47624 38871 ft 472 kts 273°
2026-05-01 15:29 54.02214 -16.53208 38995 ft 472 kts 273°
2026-05-01 15:29 54.02299 -16.64367 39160 ft 472 kts 272°
2026-05-01 15:30 54.02372 -16.75488 39175 ft 469 kts 272°
2026-05-01 15:31 54.02532 -17.08804 39176 ft 469 kts 272°
2026-05-01 15:32 54.02593 -17.30989 39181 ft 468 kts 272°
2026-05-01 15:34 54.02594 -17.64061 39192 ft 466 kts 272°